User: anonymous   Login
Location: Clatteringshaws Loch
(55.0508°N, 4.2860°W)
Time: 21:59:23
(UTC+01:00)
Language:

ALOS - Orbit

View from above orbital plane
View from above orbital plane
View from above satellite
View from above satellite

Ground track
Ground track

The orbit data is extracted from the following two-line orbital elements,

1 28931U 06002A   15115.57462334  .00001521  00000-0  31353-3 0  9995
2 28931 097.9386 167.0679 0000513 095.7241 264.4019 14.61812983492958
Epoch (UTC): 25 April 2015 13:47:27
Eccentricity: 0.0000513
inclination: 97.9386°
perigee height: 687 km
apogee height: 687 km
right ascension of ascending node: 167.0679°
argument of perigee: 95.7241°
revolutions per day: 14.61812983
mean anomaly at epoch: 264.4019°
orbit number at epoch: 49295

The dashed part of the orbit path shows where the satellite is in the earth's shadow,  

DLR